Weather in Pudozhgorskiy

Russia / Republic of Karelia     62°19′01″N   35°55′51″E
temp.,
°C
wind,
m/s
gust,
m/s
humid.,
%
clouds,
%
prec.,
mm/h
press.,
hPa
HPBL,
m
31 july, sat
sat3100:00+15ssw248145 0.0 99881
03:00+13s238599 0.0 99752
06:00+15sse258399 0.0 996142
09:00+19s356123 0.0 995730
12:00+18ssw576867 1.1 995857
15:00+18ssw566542 1.3 9951196
18:00+17sw346821 0.1 996813
21:00+13ssw11905 0.1 99717
1 august, sun
sun100:00+13ssw22910 0.0 99916
03:00+13sw22945 0.0 100024
06:00+15ssw25903 0.0 1001187
09:00+19sw46655 0.0 1002671
12:00+21sw5761100 0.1 10021078
15:00+21ssw4762100 0.4 10011189
18:00+15s3792100 1.3 1001294
21:00+14s4997100 2.9 1001384
2 august, mon
mon200:00+14s3109713 0.1 1001207
03:00+14ssw499728 0.1 1001356
06:00+15sw4996100 0.1 1002584
09:00+16sw489565 0.4 1003570
12:00+18sw5772100 0.3 10041030
15:00+21sw5650100 0.3 10031341
18:00+21ssw3655100 0.0 1003947
21:00+17se1169100 0.0 100212
3 august, tue
tue300:00+15sse3790100 0.8 1001189
03:00+15ene51398100 8.9 997697
06:00+15ese41198100 5.3 994432
09:00+15w2499100 6.8 993370
12:00+15wnw6119370 0.3 996885
15:00+19wnw5862100 0.7 9981182
18:00+18wsw367064 0.1 1000554
21:00+14sw27875 0.4 1001131
4 august, wed
wed400:00+13sw39940 0.0 1002227
03:00+13wnw4796100 0.1 1004398
06:00+13w3695100 0.1 1006476
09:00+12nw5895100 0.7 1008638
12:00+11wnw4792100 0.4 1011619
15:00+12nw4681100 0.7 1014853
18:00+12nnw467459 0.2 1015788
21:00+9n23850 0.2 101787